Location: Bucquoy
(50.1391°N, 2.7097°E)
Time: 23:41:11
(UTC+00:00)

Meteor 1-28 Rocket - Pass Details

Date: 06 May 2021
Orbit: 504 x 521 km, 97.4° (Epoch: 21 June)

Event Time Altitude Azimuth Distance (km) Brightness Sun altitude
Exits shadow 02:07:39 16° 156° (SSE) 1,401 5.1 -16.4°
Maximum altitude 02:10:34 70° 75° (ENE) 541 3.4 -16.1°
Drops below altitude 10° 02:14:16 10° 351° (N) 1,731 6.5 -15.7°
Sets 02:16:23 0° 349° (N) 2,623 7.4 -15.5°
